�������l�o���
Date,Time,MP-1(��Sv/h),MP-2(��Sv/h),MP-3(��Sv/h),MP-4(��Sv/h),MP-5(��Sv/h),MP-6(��Sv/h),MP-7(��Sv/h),����,����(m/s),���J
2018/06/17,00:00,0.298,0.189,0.302,0.290,0.280,0.148,0.092,-,CALM,��
2018/06/17,00:10,0.296,0.189,0.301,0.291,0.279,0.147,0.092,-,CALM,��
2018/06/17,00:20,0.300,0.190,0.301,0.292,0.279,0.147,0.092,-,CALM,��
2018/06/17,00:30,0.297,0.190,0.302,0.289,0.279,0.148,0.092,-,CALM,��
2018/06/17,00:40,0.300,0.190,0.300,0.292,0.282,0.148,0.091,-,CALM,��
2018/06/17,00:50,0.298,0.190,0.301,0.289,0.279,0.147,0.093,-,CALM,��
2018/06/17,01:00,0.298,0.189,0.301,0.292,0.279,0.148,0.091,-,CALM,��
2018/06/17,01:10,0.299,0.189,0.302,0.292,0.279,0.148,0.092,-,CALM,��
2018/06/17,01:20,0.298,0.190,0.301,0.291,0.280,0.147,0.092,-,CALM,��
2018/06/17,01:30,0.300,0.188,0.301,0.291,0.281,0.148,0.092,-,CALM,��
2018/06/17,01:40,0.299,0.191,0.301,0.290,0.280,0.148,0.092,-,CALM,��
2018/06/17,01:50,0.299,0.189,0.301,0.292,0.281,0.149,0.091,-,CALM,��
2018/06/17,02:00,0.298,0.189,0.302,0.290,0.279,0.148,0.092,-,CALM,��
2018/06/17,02:10,0.298,0.190,0.301,0.290,0.280,0.148,0.092,-,CALM,��
2018/06/17,02:20,0.299,0.189,0.302,0.291,0.278,0.148,0.092,-,CALM,��
2018/06/17,02:30,0.299,0.190,0.302,0.291,0.281,0.148,0.093,�k�k��,0.9,��
2018/06/17,02:40,0.299,0.188,0.301,0.291,0.280,0.148,0.093,�k��,1.2,��
2018/06/17,02:50,0.298,0.190,0.303,0.289,0.279,0.148,0.092,�k��,1.3,��
2018/06/17,03:00,0.301,0.189,0.300,0.292,0.281,0.149,0.092,�k��,1.3,��
2018/06/17,03:10,0.299,0.189,0.302,0.290,0.279,0.149,0.092,�k��,1.7,��
2018/06/17,03:20,0.300,0.190,0.300,0.292,0.281,0.149,0.091,�k��,1.4,��
2018/06/17,03:30,0.299,0.190,0.303,0.291,0.278,0.148,0.092,�k,0.8,��
2018/06/17,03:40,0.300,0.189,0.302,0.292,0.281,0.148,0.092,-,CALM,��
2018/06/17,03:50,0.299,0.189,0.301,0.292,0.278,0.148,0.091,-,CALM,��
2018/06/17,04:00,0.300,0.189,0.303,0.290,0.281,0.148,0.092,-,CALM,��
2018/06/17,04:10,0.300,0.190,0.300,0.292,0.279,0.149,0.092,-,CALM,��
2018/06/17,04:20,0.299,0.189,0.304,0.290,0.282,0.148,0.092,-,CALM,��
2018/06/17,04:30,0.301,0.189,0.302,0.292,0.281,0.149,0.092,-,CALM,��
2018/06/17,04:40,0.298,0.189,0.303,0.292,0.279,0.149,0.093,-,CALM,��
2018/06/17,04:50,0.300,0.189,0.302,0.290,0.281,0.148,0.092,-,CALM,��
2018/06/17,05:00,0.300,0.189,0.301,0.293,0.279,0.149,0.093,��쐼,1.0,��
2018/06/17,05:10,0.299,0.190,0.303,0.290,0.282,0.148,0.093,�쐼,1.1,��
2018/06/17,05:20,0.301,0.189,0.302,0.293,0.280,0.149,0.092,���쐼,1.7,��
2018/06/17,05:30,0.299,0.190,0.302,0.290,0.280,0.148,0.093,�쐼,1.8,��
2018/06/17,05:40,0.301,0.190,0.303,0.291,0.280,0.148,0.092,��쐼,1.6,��
2018/06/17,05:50,0.300,0.191,0.302,0.293,0.281,0.148,0.093,��쐼,1.3,��
2018/06/17,06:00,0.299,0.190,0.303,0.292,0.281,0.148,0.092,��쐼,1.2,��
2018/06/17,06:10,0.300,0.190,0.302,0.291,0.277,0.149,0.092,-,CALM,��
2018/06/17,06:20,0.300,0.190,0.302,0.291,0.282,0.149,0.092,��쐼,1.0,��
2018/06/17,06:30,0.300,0.189,0.302,0.292,0.278,0.149,0.093,��,2.1,��
2018/06/17,06:40,0.298,0.190,0.302,0.293,0.281,0.148,0.092,��쐼,1.7,��
2018/06/17,06:50,0.300,0.189,0.303,0.292,0.278,0.148,0.092,��쓌,1.2,��
2018/06/17,07:00,0.299,0.188,0.302,0.291,0.281,0.148,0.091,�쓌,2.4,��
2018/06/17,07:10,0.302,0.189,0.302,0.291,0.280,0.148,0.090,��쓌,1.8,��
2018/06/17,07:20,0.297,0.188,0.303,0.291,0.280,0.148,0.092,�쓌,1.8,��
2018/06/17,07:30,0.300,0.189,0.302,0.292,0.280,0.148,0.092,�쓌,1.4,��
2018/06/17,07:40,0.299,0.191,0.302,0.290,0.278,0.148,0.092,�쓌,1.7,��
2018/06/17,07:50,0.301,0.189,0.302,0.293,0.282,0.149,0.093,��쓌,2.3,��
2018/06/17,08:00,0.300,0.190,0.303,0.290,0.280,0.149,0.092,��쓌,2.0,��
2018/06/17,08:10,0.301,0.189,0.301,0.293,0.282,0.149,0.092,��쓌,1.8,��
2018/06/17,08:20,0.301,0.191,0.302,0.290,0.281,0.149,0.092,��쓌,2.0,��
2018/06/17,08:30,0.299,0.190,0.301,0.293,0.279,0.149,0.094,�쓌,1.9,��
2018/06/17,08:40,0.303,0.190,0.304,0.291,0.282,0.149,0.093,��쓌,1.9,��
2018/06/17,08:50,0.299,0.190,0.302,0.294,0.280,0.148,0.093,�쓌,2.0,��
2018/06/17,09:00,0.300,0.189,0.304,0.292,0.282,0.149,0.093,�쓌,2.0,��
2018/06/17,09:10,0.301,0.192,0.301,0.292,0.280,0.148,0.092,�쓌,2.4,��
2018/06/17,09:20,0.298,0.190,0.303,0.293,0.279,0.150,0.093,�쓌,2.5,��
2018/06/17,09:30,0.301,0.190,0.301,0.291,0.284,0.149,0.092,�쓌,2.4,��
2018/06/17,09:40,0.298,0.189,0.305,0.294,0.279,0.149,0.092,��쓌,2.5,��
2018/06/17,09:50,0.302,0.190,0.301,0.291,0.281,0.150,0.093,��쓌,3.0,��
2018/06/17,10:00,0.302,0.191,0.304,0.294,0.282,0.149,0.093,��쓌,2.6,��
2018/06/17,10:10,0.300,0.190,0.302,0.291,0.279,0.150,0.092,��쓌,2.8,��
2018/06/17,10:20,0.303,0.189,0.304,0.293,0.284,0.149,0.092,��쓌,3.0,��
2018/06/17,10:30,0.299,0.190,0.303,0.293,0.280,0.149,0.092,��쓌,2.7,��
2018/06/17,10:40,0.300,0.190,0.302,0.292,0.279,0.150,0.092,��,2.7,��
2018/06/17,10:50,0.302,0.190,0.305,0.294,0.282,0.149,0.092,��쓌,3.6,��
2018/06/17,11:00,0.299,0.190,0.303,0.292,0.279,0.150,0.092,��쓌,3.6,��
2018/06/17,11:10,0.302,0.189,0.305,0.292,0.280,0.151,0.093,�쓌,3.3,��
2018/06/17,11:20,0.302,0.191,0.302,0.294,0.282,0.148,0.092,��쓌,3.5,��
2018/06/17,11:30,0.299,0.190,0.306,0.293,0.280,0.150,0.092,�쓌,3.6,��
2018/06/17,11:40,0.302,0.190,0.303,0.294,0.283,0.149,0.093,�쓌,3.3,��
2018/06/17,11:50,0.300,0.191,0.303,0.293,0.282,0.150,0.092,��쓌,3.3,��
2018/06/17,12:00,0.301,0.191,0.304,0.295,0.280,0.150,0.093,��쓌,2.3,��
2018/06/17,12:10,0.304,0.191,0.303,0.293,0.282,0.150,0.092,��쓌,4.0,��
2018/06/17,12:20,0.299,0.190,0.305,0.296,0.279,0.150,0.092,�쓌,3.5,��
2018/06/17,12:30,0.302,0.190,0.303,0.294,0.283,0.150,0.093,�쓌,3.9,��
2018/06/17,12:40,0.302,0.192,0.305,0.292,0.282,0.150,0.092,��쓌,3.4,��
2018/06/17,12:50,0.300,0.190,0.303,0.295,0.282,0.150,0.093,��쓌,3.7,��
2018/06/17,13:00,0.303,0.190,0.305,0.292,0.284,0.149,0.092,��쓌,3.4,��
2018/06/17,13:10,0.301,0.190,0.303,0.295,0.281,0.151,0.092,��쓌,3.8,��
2018/06/17,13:20,0.300,0.189,0.305,0.293,0.283,0.149,0.093,��쓌,2.8,��
2018/06/17,13:30,0.303,0.191,0.305,0.293,0.282,0.150,0.093,��쓌,4.1,��
2018/06/17,13:40,0.300,0.191,0.302,0.295,0.280,0.150,0.093,��쓌,4.4,��
2018/06/17,13:50,0.302,0.192,0.306,0.293,0.283,0.149,0.093,��쓌,4.8,��
2018/06/17,14:00,0.302,0.192,0.303,0.296,0.282,0.150,0.092,��쓌,4.1,��
2018/06/17,14:10,0.300,0.190,0.304,0.294,0.279,0.150,0.093,��쓌,4.7,��
2018/06/17,14:20,0.303,0.190,0.305,0.294,0.282,0.149,0.093,��쓌,4.6,��
2018/06/17,14:30,0.302,0.192,0.302,0.294,0.283,0.150,0.093,��쓌,5.6,��
2018/06/17,14:40,0.299,0.191,0.304,0.293,0.283,0.150,0.093,��,5.3,��
2018/06/17,14:50,0.304,0.192,0.303,0.295,0.283,0.150,0.092,��,5.5,��
2018/06/17,15:00,0.302,0.190,0.305,0.294,0.280,0.151,0.092,��쓌,6.3,��
2018/06/17,15:10,0.299,0.191,0.305,0.296,0.282,0.150,0.093,��쓌,6.1,��
2018/06/17,15:20,0.303,0.190,0.304,0.293,0.283,0.151,0.093,��,7.2,��
2018/06/17,15:30,0.302,0.191,0.306,0.295,0.281,0.150,0.093,��,6.4,��
2018/06/17,15:40,0.300,0.191,0.303,0.295,0.284,0.151,0.092,��쓌,6.6,��
2018/06/17,15:50,0.304,0.191,0.306,0.295,0.281,0.151,0.093,��쓌,6.3,��
2018/06/17,16:00,0.302,0.191,0.304,0.295,0.285,0.149,0.093,��쓌,5.6,��
2018/06/17,16:10,0.303,0.191,0.307,0.293,0.283,0.151,0.093,��,6.6,��
2018/06/17,16:20,0.303,0.191,0.304,0.296,0.282,0.151,0.093,��,7.8,��
2018/06/17,16:30,0.302,0.192,0.305,0.294,0.283,0.150,0.093,��,8.2,��
2018/06/17,16:40,0.304,0.191,0.304,0.297,0.282,0.151,0.093,��,8.7,��
2018/06/17,16:50,0.301,0.192,0.305,0.293,0.284,0.151,0.092,��,8.5,��
2018/06/17,17:00,0.303,0.191,0.304,0.296,0.280,0.150,0.093,��,7.9,��
2018/06/17,17:10,0.304,0.192,0.307,0.295,0.284,0.151,0.093,��,6.0,��
2018/06/17,17:20,0.304,0.192,0.304,0.296,0.281,0.151,0.093,��,6.0,��
2018/06/17,17:30,0.302,0.192,0.306,0.294,0.285,0.151,0.092,��,5.6,��
2018/06/17,17:40,0.304,0.190,0.305,0.297,0.282,0.151,0.093,��,6.7,��
2018/06/17,17:50,0.303,0.191,0.305,0.295,0.284,0.150,0.092,��,4.0,��
2018/06/17,18:00,0.301,0.191,0.305,0.296,0.283,0.150,0.092,��,3.4,��
2018/06/17,18:10,0.304,0.191,0.305,0.295,0.282,0.150,0.093,��,7.1,��
2018/06/17,18:20,0.302,0.192,0.305,0.295,0.283,0.151,0.092,��쐼,6.9,��
2018/06/17,18:30,0.306,0.191,0.305,0.297,0.282,0.151,0.093,��쐼,5.8,��
2018/06/17,18:40,0.302,0.192,0.306,0.297,0.285,0.150,0.093,��쐼,6.5,��
2018/06/17,18:50,0.303,0.192,0.305,0.294,0.283,0.151,0.093,��,6.5,��
2018/06/17,19:00,0.301,0.192,0.305,0.295,0.285,0.151,0.093,��,6.0,��
2018/06/17,19:10,0.304,0.192,0.306,0.294,0.282,0.152,0.094,��,7.2,��
2018/06/17,19:20,0.303,0.192,0.306,0.295,0.285,0.150,0.093,��쐼,7.3,��
2018/06/17,19:30,0.304,0.192,0.307,0.296,0.283,0.151,0.093,��,6.2,��
2018/06/17,19:40,0.302,0.191,0.307,0.296,0.284,0.149,0.093,��,6.4,��
2018/06/17,19:50,0.302,0.192,0.306,0.295,0.282,0.150,0.093,��쐼,5.9,��
2018/06/17,20:00,0.303,0.193,0.306,0.297,0.284,0.151,0.093,��쐼,5.9,��
2018/06/17,20:10,0.302,0.192,0.306,0.296,0.282,0.152,0.093,��쐼,5.7,��
2018/06/17,20:20,0.304,0.192,0.306,0.296,0.285,0.151,0.093,��쐼,6.2,��
2018/06/17,20:30,0.305,0.191,0.308,0.296,0.284,0.152,0.093,��쐼,7.7,��
2018/06/17,20:40,0.304,0.193,0.306,0.297,0.284,0.151,0.093,��,7.0,��
2018/06/17,20:50,0.305,0.192,0.307,0.295,0.284,0.151,0.092,��쐼,7.6,��
2018/06/17,21:00,0.304,0.192,0.305,0.296,0.283,0.151,0.093,��쐼,7.2,��
2018/06/17,21:10,0.305,0.191,0.307,0.296,0.283,0.151,0.093,��쐼,8.6,��
2018/06/17,21:20,0.302,0.192,0.305,0.298,0.283,0.151,0.093,��쐼,10.0,��
2018/06/17,21:30,0.304,0.192,0.305,0.295,0.286,0.151,0.093,��쐼,8.2,��
2018/06/17,21:40,0.301,0.191,0.307,0.295,0.282,0.150,0.094,��쐼,8.1,��
2018/06/17,21:50,0.304,0.193,0.306,0.297,0.285,0.151,0.094,��쐼,9.2,��
2018/06/17,22:00,0.303,0.191,0.307,0.297,0.282,0.152,0.094,��쐼,9.5,��
2018/06/17,22:10,0.304,0.192,0.306,0.297,0.284,0.151,0.094,��쐼,10.4,��
2018/06/17,22:20,0.302,0.191,0.307,0.295,0.282,0.151,0.093,��쐼,9.6,��
2018/06/17,22:30,0.304,0.192,0.305,0.298,0.285,0.151,0.093,��쐼,10.6,��
2018/06/17,22:40,0.304,0.192,0.307,0.294,0.281,0.151,0.093,��쐼,10.6,��
2018/06/17,22:50,0.302,0.192,0.304,0.297,0.283,0.152,0.093,��쐼,11.4,��
2018/06/17,23:00,0.304,0.191,0.308,0.295,0.283,0.152,0.092,��쐼,10.9,��
2018/06/17,23:10,0.302,0.191,0.305,0.297,0.282,0.151,0.093,��쐼,11.7,��
2018/06/17,23:20,0.303,0.192,0.307,0.294,0.282,0.151,0.094,��쐼,10.9,��
2018/06/17,23:30,0.302,0.192,0.306,0.297,0.284,0.151,0.093,��쐼,10.9,��
2018/06/17,23:40,0.305,0.192,0.307,0.297,0.283,0.151,0.094,��쐼,10.7,��
2018/06/17,23:50,0.302,0.191,0.306,0.297,0.283,0.151,0.093,��쐼,11.7,��
